Time,TemperatureF,DewpointF,PressureIn,WindDirection,WindDirectionDegrees,WindSpeedMPH,WindSpeedGustMPH,Humidity,HourlyPrecipIn,Conditions,Clouds,dailyrainin,SoftwareType,DateUTC
2013-04-05 00:01:00,43.2,13.1,29.70,SW,235,0.0,0.0,29,0.00,,,0.00,VWS V14.01,2013-04-05 07:01:00,
2013-04-05 00:07:00,43.0,12.9,29.70,SW,235,0.0,0.0,29,0.00,,,0.00,VWS V14.01,2013-04-05 07:07:00,
2013-04-05 00:12:00,43.0,12.9,29.70,SW,235,0.0,0.0,29,0.00,,,0.00,VWS V14.01,2013-04-05 07:12:00,
2013-04-05 00:17:00,43.2,13.1,29.70,SW,235,0.0,0.0,29,0.00,,,0.00,VWS V14.01,2013-04-05 07:17:00,
2013-04-05 00:23:00,43.2,13.1,29.70,SW,235,0.0,0.0,29,0.00,,,0.00,VWS V14.01,2013-04-05 07:23:00,
2013-04-05 00:30:00,43.3,13.2,29.70,SW,235,0.0,0.0,29,0.00,,,0.00,VWS V14.01,2013-04-05 07:30:00,
2013-04-05 00:35:00,43.3,13.2,29.70,SW,235,0.0,0.0,29,0.00,,,0.00,VWS V14.01,2013-04-05 07:35:00,
2013-04-05 00:41:00,43.3,13.2,29.70,SW,235,0.0,0.0,29,0.00,,,0.00,VWS V14.01,2013-04-05 07:41:00,
2013-04-05 00:46:00,43.0,12.9,29.70,SW,235,0.0,0.0,29,0.00,,,0.00,VWS V14.01,2013-04-05 07:46:00,
2013-04-05 00:51:00,42.8,12.8,29.73,SW,235,0.0,0.0,29,0.00,,,0.00,VWS V14.01,2013-04-05 07:51:00,
2013-04-05 00:57:00,42.8,12.8,29.73,SW,235,0.0,0.0,29,0.04,,,0.04,VWS V14.01,2013-04-05 07:57:00,
2013-04-05 01:03:00,43.0,12.9,29.73,SW,235,0.0,0.0,29,0.04,,,0.04,VWS V14.01,2013-04-05 08:03:00,
2013-04-05 01:09:00,43.0,12.9,29.73,SW,235,0.0,0.0,29,0.04,,,0.04,VWS V14.01,2013-04-05 08:09:00,
2013-04-05 01:15:00,43.0,12.9,29.73,SW,235,0.0,0.0,29,0.04,,,0.04,VWS V14.01,2013-04-05 08:15:00,
2013-04-05 01:20:00,42.8,12.8,29.73,SW,235,0.0,0.0,29,0.04,,,0.04,VWS V14.01,2013-04-05 08:20:00,
2013-04-05 01:26:00,42.8,12.8,29.73,SW,235,0.0,0.0,29,0.04,,,0.04,VWS V14.01,2013-04-05 08:26:00,
2013-04-05 01:31:00,42.8,12.8,29.73,SW,235,0.0,0.0,29,0.04,,,0.04,VWS V14.01,2013-04-05 08:31:00,
2013-04-05 01:37:00,42.6,12.6,29.73,SW,235,0.0,0.0,29,0.04,,,0.04,VWS V14.01,2013-04-05 08:37:00,
2013-04-05 01:43:00,42.8,12.8,29.73,SW,235,0.0,0.0,29,0.04,,,0.04,VWS V14.01,2013-04-05 08:43:00,
2013-04-05 01:49:00,43.0,12.9,29.73,SW,235,0.0,0.0,29,0.04,,,0.04,VWS V14.01,2013-04-05 08:49:00,
2013-04-05 01:54:00,42.8,12.8,29.73,SW,235,0.0,0.0,29,0.00,,,0.04,VWS V14.01,2013-04-05 08:54:00,
2013-04-05 02:00:00,42.6,12.6,29.73,SW,235,0.0,0.0,29,0.00,,,0.04,VWS V14.01,2013-04-05 09:00:00,
2013-04-05 02:05:00,42.6,12.6,29.73,SW,235,0.0,0.0,29,0.00,,,0.04,VWS V14.01,2013-04-05 09:05:00,
2013-04-05 02:10:00,42.8,12.8,29.73,SW,235,0.0,0.0,29,0.00,,,0.04,VWS V14.01,2013-04-05 09:10:00,
2013-04-05 02:16:00,43.0,12.9,29.73,SW,235,0.0,0.0,29,0.00,,,0.04,VWS V14.01,2013-04-05 09:16:00,
2013-04-05 02:21:00,43.0,12.9,29.73,SW,235,0.0,0.0,29,0.00,,,0.04,VWS V14.01,2013-04-05 09:21:00,
2013-04-05 02:27:00,42.4,12.4,29.70,SW,235,0.0,0.0,29,0.00,,,0.04,VWS V14.01,2013-04-05 09:27:00,
2013-04-05 02:32:00,42.4,12.4,29.70,SW,235,0.0,0.0,29,0.00,,,0.04,VWS V14.01,2013-04-05 09:32:00,
2013-04-05 02:38:00,42.4,13.2,29.70,SW,235,0.0,0.0,30,0.00,,,0.04,VWS V14.01,2013-04-05 09:38:00,
2013-04-05 02:44:00,42.4,13.2,29.70,SW,235,0.0,0.0,30,0.00,,,0.04,VWS V14.01,2013-04-05 09:44:00,
2013-04-05 02:49:00,42.4,13.2,29.70,SW,235,0.0,0.0,30,0.00,,,0.04,VWS V14.01,2013-04-05 09:49:00,
2013-04-05 02:55:00,42.4,13.2,29.73,SW,235,0.0,0.0,30,0.00,,,0.04,VWS V14.01,2013-04-05 09:55:00,
2013-04-05 03:00:00,42.4,13.2,29.73,SW,235,0.0,0.0,30,0.00,,,0.04,VWS V14.01,2013-04-05 10:00:00,
2013-04-05 03:05:00,42.4,13.2,29.73,SW,235,0.0,0.0,30,0.00,,,0.04,VWS V14.01,2013-04-05 10:05:00,
2013-04-05 03:10:00,42.4,13.2,29.73,SW,235,0.0,0.0,30,0.00,,,0.04,VWS V14.01,2013-04-05 10:10:00,
2013-04-05 03:16:00,42.6,13.4,29.73,SW,235,0.0,0.0,30,0.00,,,0.04,VWS V14.01,2013-04-05 10:16:00,
2013-04-05 03:21:00,42.8,12.8,29.73,SW,235,0.0,0.0,29,0.04,,,0.08,VWS V14.01,2013-04-05 10:21:00,
2013-04-05 03:26:00,42.8,12.8,29.73,SW,235,0.0,0.0,29,0.04,,,0.08,VWS V14.01,2013-04-05 10:26:00,
2013-04-05 03:32:00,42.4,13.2,29.73,SW,235,0.0,0.0,30,0.04,,,0.08,VWS V14.01,2013-04-05 10:32:00,
2013-04-05 03:37:00,42.3,13.1,29.73,SW,235,0.0,0.0,30,0.04,,,0.08,VWS V14.01,2013-04-05 10:37:00,
2013-04-05 03:42:00,42.4,13.2,29.73,SW,235,0.0,0.0,30,0.04,,,0.08,VWS V14.01,2013-04-05 10:42:00,
2013-04-05 03:47:00,42.4,13.2,29.73,SW,235,0.0,0.0,30,0.04,,,0.08,VWS V14.01,2013-04-05 10:47:00,
2013-04-05 03:52:00,42.4,13.2,29.70,SW,235,0.0,0.0,30,0.04,,,0.08,VWS V14.01,2013-04-05 10:52:00,
2013-04-05 03:58:00,42.4,13.2,29.70,SW,235,0.0,0.0,30,0.04,,,0.08,VWS V14.01,2013-04-05 10:58:00,
2013-04-05 04:04:00,42.4,13.2,29.70,SW,235,0.0,0.0,30,0.04,,,0.08,VWS V14.01,2013-04-05 11:04:00,
2013-04-05 04:09:00,42.4,13.2,29.70,SW,235,0.0,0.0,30,0.04,,,0.08,VWS V14.01,2013-04-05 11:09:00,
2013-04-05 04:14:00,42.6,13.4,29.70,SW,235,0.0,0.0,30,0.04,,,0.08,VWS V14.01,2013-04-05 11:14:00,
2013-04-05 04:19:00,42.8,12.8,29.70,SW,235,0.0,0.0,29,0.04,,,0.08,VWS V14.01,2013-04-05 11:19:00,
2013-04-05 04:24:00,42.8,12.8,29.70,SW,235,0.0,0.0,29,0.00,,,0.08,VWS V14.01,2013-04-05 11:24:00,
2013-04-05 04:30:00,42.8,12.8,29.70,SW,235,0.0,0.0,29,0.00,,,0.08,VWS V14.01,2013-04-05 11:30:00,
2013-04-05 04:35:00,42.1,12.1,29.70,SW,235,0.0,0.0,29,0.00,,,0.08,VWS V14.01,2013-04-05 11:35:00,
2013-04-05 04:40:00,41.9,12.0,29.73,SW,235,0.0,0.0,29,0.00,,,0.08,VWS V14.01,2013-04-05 11:40:00,
2013-04-05 04:45:00,42.1,12.1,29.73,SW,235,0.0,0.0,29,0.00,,,0.08,VWS V14.01,2013-04-05 11:45:00,
2013-04-05 04:50:00,41.9,12.0,29.73,SW,235,0.0,0.0,29,0.00,,,0.08,VWS V14.01,2013-04-05 11:50:00,
2013-04-05 04:57:00,41.9,12.0,29.73,SW,235,0.0,0.0,29,0.00,,,0.08,VWS V14.01,2013-04-05 11:57:00,
2013-04-05 05:02:00,41.9,12.7,29.73,SW,235,0.0,0.0,30,0.00,,,0.08,VWS V14.01,2013-04-05 12:02:00,
2013-04-05 05:07:00,41.7,11.8,29.73,SW,235,0.0,0.0,29,0.00,,,0.08,VWS V14.01,2013-04-05 12:07:00,
2013-04-05 05:12:00,41.7,12.6,29.73,SW,235,0.0,0.0,30,0.00,,,0.08,VWS V14.01,2013-04-05 12:12:00,
2013-04-05 05:18:00,41.7,12.6,29.73,SW,235,0.0,0.0,30,0.00,,,0.08,VWS V14.01,2013-04-05 12:18:00,
2013-04-05 05:23:00,41.9,12.7,29.73,SW,235,0.0,0.0,30,0.00,,,0.08,VWS V14.01,2013-04-05 12:23:00,
2013-04-05 05:29:00,41.9,12.7,29.73,SW,235,0.0,0.0,30,0.00,,,0.08,VWS V14.01,2013-04-05 12:29:00,
2013-04-05 05:35:00,41.9,12.7,29.73,SW,235,0.0,0.0,30,0.00,,,0.08,VWS V14.01,2013-04-05 12:35:00,
2013-04-05 05:40:00,41.9,12.7,29.73,SW,235,0.0,0.0,30,0.04,,,0.12,VWS V14.01,2013-04-05 12:40:00,
2013-04-05 05:46:00,42.1,12.9,29.73,SW,235,0.0,0.0,30,0.04,,,0.12,VWS V14.01,2013-04-05 12:46:00,
2013-04-05 05:52:00,42.3,13.1,29.73,SW,235,0.0,0.0,30,0.04,,,0.12,VWS V14.01,2013-04-05 12:52:00,
2013-04-05 05:57:00,42.4,13.2,29.73,WNW,289,0.0,2.7,30,0.04,,,0.12,VWS V14.01,2013-04-05 12:57:00,
2013-04-05 06:03:00,42.4,13.2,29.73,SW,228,0.0,2.2,30,0.08,,,0.16,VWS V14.01,2013-04-05 13:03:00,
2013-04-05 06:08:00,42.4,13.2,29.73,West,259,2.2,2.2,30,0.08,,,0.16,VWS V14.01,2013-04-05 13:08:00,
2013-04-05 06:13:00,42.4,13.2,29.73,WSW,247,0.0,0.0,30,0.08,,,0.16,VWS V14.01,2013-04-05 13:13:00,
2013-04-05 06:19:00,42.4,13.2,29.73,SW,216,0.0,0.0,30,0.08,,,0.16,VWS V14.01,2013-04-05 13:19:00,
2013-04-05 06:24:00,42.3,13.1,29.73,SW,216,0.0,0.0,30,0.08,,,0.16,VWS V14.01,2013-04-05 13:24:00,
2013-04-05 06:29:00,42.3,13.1,29.73,WNW,302,0.0,0.0,30,0.12,,,0.20,VWS V14.01,2013-04-05 13:29:00,
2013-04-05 06:35:00,42.1,12.9,29.73,WNW,302,0.0,0.0,30,0.12,,,0.20,VWS V14.01,2013-04-05 13:35:00,
2013-04-05 06:40:00,42.1,12.9,29.73,SW,220,0.0,0.0,30,0.08,,,0.20,VWS V14.01,2013-04-05 13:40:00,
2013-04-05 06:46:00,41.7,12.6,29.73,SW,219,0.0,2.7,30,0.08,,,0.20,VWS V14.01,2013-04-05 13:46:00,
2013-04-05 06:52:00,41.5,12.4,29.73,SSW,207,0.0,0.0,30,0.12,,,0.24,VWS V14.01,2013-04-05 13:52:00,
2013-04-05 06:57:00,41.4,11.5,29.73,NW,304,0.0,0.0,29,0.12,,,0.24,VWS V14.01,2013-04-05 13:57:00,
2013-04-05 07:02:00,41.2,11.4,29.73,NW,317,0.0,0.0,29,0.08,,,0.24,VWS V14.01,2013-04-05 14:02:00,
2013-04-05 07:08:00,41.0,11.2,29.73,WSW,244,0.0,0.0,29,0.08,,,0.24,VWS V14.01,2013-04-05 14:08:00,
2013-04-05 07:14:00,40.8,11.8,29.73,West,281,0.0,0.0,30,0.12,,,0.28,VWS V14.01,2013-04-05 14:14:00,
2013-04-05 07:19:00,40.6,11.6,29.73,WSW,249,0.0,0.0,30,0.12,,,0.28,VWS V14.01,2013-04-05 14:19:00,
2013-04-05 07:25:00,40.6,11.6,29.73,SW,226,0.0,0.0,30,0.16,,,0.31,VWS V14.01,2013-04-05 14:25:00,
2013-04-05 07:31:00,40.5,11.5,29.73,SW,233,0.0,0.0,30,0.12,,,0.31,VWS V14.01,2013-04-05 14:31:00,
2013-04-05 07:37:00,40.5,11.5,29.76,NW,307,0.0,0.0,30,0.16,,,0.35,VWS V14.01,2013-04-05 14:37:00,
2013-04-05 07:42:00,40.3,11.3,29.76,NW,308,0.0,0.0,30,0.16,,,0.35,VWS V14.01,2013-04-05 14:42:00,
2013-04-05 07:48:00,40.1,11.2,29.76,NW,316,0.0,0.0,30,0.16,,,0.35,VWS V14.01,2013-04-05 14:48:00,
2013-04-05 07:53:00,40.3,11.3,29.76,NW,316,0.0,0.0,30,0.16,,,0.39,VWS V14.01,2013-04-05 14:53:00,
2013-04-05 07:59:00,39.9,11.0,29.76,NW,316,0.0,0.0,30,0.16,,,0.39,VWS V14.01,2013-04-05 14:59:00,
2013-04-05 08:04:00,39.9,11.0,29.76,NW,316,0.0,0.0,30,0.16,,,0.39,VWS V14.01,2013-04-05 15:04:00,
2013-04-05 08:11:00,39.7,10.9,29.76,NW,316,0.0,0.0,30,0.16,,,0.43,VWS V14.01,2013-04-05 15:11:00,
2013-04-05 08:16:00,39.7,10.9,29.76,NW,316,0.0,0.0,30,0.16,,,0.43,VWS V14.01,2013-04-05 15:16:00,
2013-04-05 08:23:00,39.7,10.9,29.76,West,277,0.0,0.0,30,0.20,,,0.47,VWS V14.01,2013-04-05 15:23:00,
2013-04-05 08:29:00,39.6,10.7,29.76,WNW,292,0.0,0.0,30,0.16,,,0.47,VWS V14.01,2013-04-05 15:29:00,
2013-04-05 08:34:00,39.6,10.7,29.76,WNW,292,0.0,0.0,30,0.16,,,0.47,VWS V14.01,2013-04-05 15:34:00,
2013-04-05 08:40:00,39.7,10.9,29.76,WNW,287,0.0,0.0,30,0.12,,,0.47,VWS V14.01,2013-04-05 15:40:00,
2013-04-05 08:46:00,39.7,10.9,29.76,NW,314,0.0,0.0,30,0.12,,,0.47,VWS V14.01,2013-04-05 15:46:00,
2013-04-05 08:52:00,39.7,10.9,29.76,NW,315,0.0,0.0,30,0.16,,,0.51,VWS V14.01,2013-04-05 15:52:00,
2013-04-05 08:57:00,39.9,11.0,29.76,NW,315,0.0,0.0,30,0.12,,,0.51,VWS V14.01,2013-04-05 15:57:00,
2013-04-05 09:02:00,39.9,11.0,29.76,NW,315,0.0,0.0,30,0.12,,,0.51,VWS V14.01,2013-04-05 16:02:00,
2013-04-05 09:09:00,39.9,11.0,29.76,NW,315,0.0,0.0,30,0.08,,,0.51,VWS V14.01,2013-04-05 16:09:00,
2013-04-05 09:16:00,39.9,11.0,29.76,NW,315,0.0,0.0,30,0.08,,,0.51,VWS V14.01,2013-04-05 16:16:00,
2013-04-05 09:21:00,40.3,11.3,29.76,NW,315,0.0,0.0,30,0.08,,,0.51,VWS V14.01,2013-04-05 16:21:00,
2013-04-05 09:27:00,40.5,11.5,29.76,NW,315,0.0,0.0,30,0.04,,,0.51,VWS V14.01,2013-04-05 16:27:00,
2013-04-05 09:33:00,40.6,11.6,29.76,WNW,290,0.0,0.0,30,0.04,,,0.51,VWS V14.01,2013-04-05 16:33:00,
2013-04-05 09:40:00,41.2,11.4,29.76,SSW,202,0.0,0.0,29,0.08,,,0.55,VWS V14.01,2013-04-05 16:40:00,
2013-04-05 09:45:00,41.7,12.6,29.76,NNW,327,2.7,2.7,30,0.08,,,0.55,VWS V14.01,2013-04-05 16:45:00,
2013-04-05 09:50:00,42.1,12.9,29.76,WSW,240,0.0,3.1,30,0.04,,,0.55,VWS V14.01,2013-04-05 16:50:00,
2013-04-05 09:56:00,42.3,12.3,29.76,SW,215,0.0,0.0,29,0.04,,,0.55,VWS V14.01,2013-04-05 16:56:00,
2013-04-05 10:02:00,42.8,12.8,29.76,SSW,209,3.1,3.1,29,0.04,,,0.55,VWS V14.01,2013-04-05 17:02:00,
2013-04-05 10:07:00,43.0,12.9,29.76,SSW,205,0.0,0.0,29,0.04,,,0.55,VWS V14.01,2013-04-05 17:07:00,
2013-04-05 10:12:00,43.2,13.1,29.76,SSW,205,0.0,0.0,29,0.04,,,0.55,VWS V14.01,2013-04-05 17:12:00,
2013-04-05 10:19:00,43.2,13.1,29.76,SSW,205,0.0,0.0,29,0.04,,,0.55,VWS V14.01,2013-04-05 17:19:00,
2013-04-05 10:25:00,43.5,13.4,29.76,SSW,205,0.0,0.0,29,0.04,,,0.55,VWS V14.01,2013-04-05 17:25:00,
2013-04-05 10:31:00,43.5,13.4,29.76,SSW,203,0.0,0.0,29,0.04,,,0.55,VWS V14.01,2013-04-05 17:31:00,
2013-04-05 10:37:00,43.5,13.4,29.76,SSW,203,0.0,0.0,29,0.04,,,0.55,VWS V14.01,2013-04-05 17:37:00,
2013-04-05 10:43:00,43.5,13.4,29.76,SSW,203,0.0,0.0,29,0.00,,,0.55,VWS V14.01,2013-04-05 17:43:00,
2013-04-05 10:48:00,43.5,13.4,29.76,SSW,203,0.0,0.0,29,0.00,,,0.55,VWS V14.01,2013-04-05 17:48:00,
2013-04-05 10:53:00,43.7,13.5,29.76,SSW,203,0.0,0.0,29,0.00,,,0.55,VWS V14.01,2013-04-05 17:53:00,
2013-04-05 10:58:00,43.9,13.7,29.76,SSW,203,0.0,0.0,29,0.00,,,0.55,VWS V14.01,2013-04-05 17:58:00,
2013-04-05 11:04:00,44.1,13.9,29.76,SSW,203,0.0,0.0,29,0.00,,,0.55,VWS V14.01,2013-04-05 18:04:00,
2013-04-05 11:09:00,44.6,14.3,29.76,SSW,203,0.0,0.0,29,0.00,,,0.55,VWS V14.01,2013-04-05 18:09:00,
2013-04-05 11:15:00,45.1,14.8,29.76,SSW,203,0.0,0.0,29,0.00,,,0.55,VWS V14.01,2013-04-05 18:15:00,
2013-04-05 11:20:00,45.5,15.1,29.76,SSW,203,0.0,0.0,29,0.00,,,0.55,VWS V14.01,2013-04-05 18:20:00,
2013-04-05 11:26:00,45.9,15.4,29.76,SSW,196,0.0,0.0,29,0.00,,,0.55,VWS V14.01,2013-04-05 18:26:00,
2013-04-05 11:33:00,45.5,15.1,29.76,SSW,196,0.0,0.0,29,0.00,,,0.55,VWS V14.01,2013-04-05 18:33:00,
2013-04-05 11:39:00,45.7,15.3,29.79,SSW,196,0.0,0.0,29,0.00,,,0.55,VWS V14.01,2013-04-05 18:39:00,
2013-04-05 11:44:00,46.0,15.6,29.79,SSW,196,0.0,0.0,29,0.00,,,0.55,VWS V14.01,2013-04-05 18:44:00,
2013-04-05 11:50:00,46.2,15.7,29.79,SSW,196,0.0,0.0,29,0.00,,,0.55,VWS V14.01,2013-04-05 18:50:00,
2013-04-05 11:55:00,46.4,15.1,29.79,SSW,196,0.0,0.0,28,0.00,,,0.55,VWS V14.01,2013-04-05 18:55:00,
2013-04-05 12:00:00,46.2,15.7,29.79,SW,218,0.0,0.0,29,0.00,,,0.55,VWS V14.01,2013-04-05 19:00:00,
2013-04-05 12:05:00,46.8,15.4,29.79,West,262,0.0,0.0,28,0.00,,,0.55,VWS V14.01,2013-04-05 19:05:00,
2013-04-05 12:12:00,46.2,14.9,29.79,SW,231,7.6,8.3,28,0.04,,,0.59,VWS V14.01,2013-04-05 19:12:00,
2013-04-05 12:18:00,46.4,15.1,29.79,SW,231,0.0,6.3,28,0.04,,,0.59,VWS V14.01,2013-04-05 19:18:00,
2013-04-05 12:25:00,45.9,14.6,29.79,SW,219,5.4,5.4,28,0.04,,,0.59,VWS V14.01,2013-04-05 19:25:00,
2013-04-05 12:30:00,46.2,14.9,29.79,WSW,237,2.2,6.3,28,0.04,,,0.59,VWS V14.01,2013-04-05 19:30:00,
2013-04-05 12:35:00,46.4,14.2,29.79,SW,231,4.0,8.3,27,0.04,,,0.59,VWS V14.01,2013-04-05 19:35:00,
2013-04-05 12:40:00,46.8,14.6,29.79,SW,229,7.2,7.2,27,0.04,,,0.59,VWS V14.01,2013-04-05 19:40:00,
2013-04-05 12:46:00,46.4,14.2,29.79,SW,223,5.8,5.8,27,0.04,,,0.59,VWS V14.01,2013-04-05 19:46:00,
2013-04-05 12:51:00,46.2,14.9,29.79,SW,230,4.0,5.8,28,0.04,,,0.59,VWS V14.01,2013-04-05 19:51:00,
2013-04-05 12:57:00,46.6,14.4,29.79,SW,227,2.7,4.0,27,0.04,,,0.59,VWS V14.01,2013-04-05 19:57:00,
2013-04-05 13:02:00,46.6,14.4,29.79,WSW,255,5.8,5.8,27,0.04,,,0.59,VWS V14.01,2013-04-05 20:02:00,
2013-04-05 13:08:00,46.8,14.6,29.79,West,265,2.2,3.6,27,0.04,,,0.59,VWS V14.01,2013-04-05 20:08:00,
2013-04-05 13:13:00,46.9,14.7,29.79,WSW,242,3.1,10.1,27,0.00,,,0.59,VWS V14.01,2013-04-05 20:13:00,
2013-04-05 13:19:00,47.7,15.3,29.79,SW,221,2.7,6.3,27,0.00,,,0.59,VWS V14.01,2013-04-05 20:19:00,
2013-04-05 13:25:00,48.0,15.6,29.79,SW,226,7.6,7.6,27,0.00,,,0.59,VWS V14.01,2013-04-05 20:25:00,
2013-04-05 13:30:00,48.2,15.8,29.79,SSW,199,3.6,3.6,27,0.00,,,0.59,VWS V14.01,2013-04-05 20:30:00,
2013-04-05 13:36:00,48.6,16.1,29.79,SW,235,2.2,2.2,27,0.00,,,0.59,VWS V14.01,2013-04-05 20:36:00,
2013-04-05 13:42:00,48.7,16.3,29.79,WNW,291,0.0,5.4,27,0.00,,,0.59,VWS V14.01,2013-04-05 20:42:00,
2013-04-05 13:47:00,48.7,16.3,29.79,SW,231,5.8,6.3,27,0.00,,,0.59,VWS V14.01,2013-04-05 20:47:00,
2013-04-05 13:53:00,48.7,16.3,29.79,SW,226,0.0,7.6,27,0.00,,,0.59,VWS V14.01,2013-04-05 20:53:00,
2013-04-05 13:58:00,48.9,16.4,29.79,SSW,198,4.0,4.0,27,0.00,,,0.59,VWS V14.01,2013-04-05 20:58:00,
2013-04-05 14:03:00,48.7,16.3,29.79,WSW,239,4.9,4.9,27,0.00,,,0.59,VWS V14.01,2013-04-05 21:03:00,
2013-04-05 14:09:00,48.6,16.1,29.82,SW,229,0.0,2.2,27,0.00,,,0.59,VWS V14.01,2013-04-05 21:09:00,
2013-04-05 14:15:00,47.8,15.5,29.82,WSW,253,7.6,7.6,27,0.00,,,0.59,VWS V14.01,2013-04-05 21:15:00,
2013-04-05 14:20:00,47.7,15.3,29.82,SW,217,3.6,3.6,27,0.00,,,0.59,VWS V14.01,2013-04-05 21:20:00,
2013-04-05 14:25:00,47.8,15.5,29.82,SW,225,2.7,5.4,27,0.00,,,0.59,VWS V14.01,2013-04-05 21:25:00,
2013-04-05 14:31:00,47.8,15.5,29.82,WSW,256,3.1,5.4,27,0.00,,,0.59,VWS V14.01,2013-04-05 21:31:00,
2013-04-05 14:36:00,47.8,15.5,29.82,WSW,241,7.6,7.6,27,0.00,,,0.59,VWS V14.01,2013-04-05 21:36:00,
2013-04-05 14:41:00,47.7,15.3,29.82,SW,222,5.8,5.8,27,0.00,,,0.59,VWS V14.01,2013-04-05 21:41:00,
2013-04-05 14:47:00,47.1,14.9,29.82,West,261,2.2,4.0,27,0.00,,,0.59,VWS V14.01,2013-04-05 21:47:00,
2013-04-05 14:54:00,46.6,14.4,29.82,SW,224,0.0,0.0,27,0.00,,,0.59,VWS V14.01,2013-04-05 21:54:00,
2013-04-05 15:00:00,46.2,14.9,29.82,WSW,249,0.0,0.0,28,0.00,,,0.59,VWS V14.01,2013-04-05 22:00:00,
2013-04-05 15:05:00,46.2,14.9,29.82,WSW,251,0.0,7.2,28,0.00,,,0.59,VWS V14.01,2013-04-05 22:05:00,
2013-04-05 15:10:00,46.4,14.2,29.82,WSW,249,0.0,3.1,27,0.00,,,0.59,VWS V14.01,2013-04-05 22:10:00,
2013-04-05 15:16:00,46.4,14.2,29.82,SW,217,0.0,0.0,27,0.00,,,0.59,VWS V14.01,2013-04-05 22:16:00,
2013-04-05 15:21:00,46.6,14.4,29.82,SW,217,0.0,0.0,27,0.00,,,0.59,VWS V14.01,2013-04-05 22:21:00,
2013-04-05 15:27:00,46.6,14.4,29.82,SW,217,0.0,0.0,27,0.00,,,0.59,VWS V14.01,2013-04-05 22:27:00,
2013-04-05 15:33:00,46.6,14.4,29.82,NW,306,0.0,0.0,27,0.00,,,0.59,VWS V14.01,2013-04-05 22:33:00,
2013-04-05 15:38:00,46.6,14.4,29.82,West,263,0.0,0.0,27,0.00,,,0.59,VWS V14.01,2013-04-05 22:38:00,
2013-04-05 15:43:00,46.6,14.4,29.82,SW,229,3.6,3.6,27,0.00,,,0.59,VWS V14.01,2013-04-05 22:43:00,
2013-04-05 15:49:00,46.6,14.4,29.82,West,264,0.0,0.0,27,0.00,,,0.59,VWS V14.01,2013-04-05 22:49:00,
2013-04-05 15:54:00,46.4,14.2,29.82,West,280,0.0,0.0,27,0.00,,,0.59,VWS V14.01,2013-04-05 22:54:00,
2013-04-05 15:59:00,46.4,14.2,29.82,WSW,256,0.0,0.0,27,0.00,,,0.59,VWS V14.01,2013-04-05 22:59:00,
2013-04-05 16:04:00,46.6,14.4,29.82,WSW,237,0.0,2.2,27,0.00,,,0.59,VWS V14.01,2013-04-05 23:04:00,
2013-04-05 16:09:00,46.6,14.4,29.82,WSW,246,0.0,3.1,27,0.00,,,0.59,VWS V14.01,2013-04-05 23:09:00,
2013-04-05 16:15:00,46.6,14.4,29.82,WSW,237,3.6,4.0,27,0.00,,,0.59,VWS V14.01,2013-04-05 23:15:00,
2013-04-05 16:21:00,46.8,14.6,29.82,WSW,254,0.0,4.9,27,0.00,,,0.59,VWS V14.01,2013-04-05 23:21:00,
2013-04-05 16:27:00,46.8,14.6,29.82,WSW,247,0.0,0.0,27,0.00,,,0.59,VWS V14.01,2013-04-05 23:27:00,
2013-04-05 16:32:00,46.8,14.6,29.82,WSW,251,0.0,0.0,27,0.00,,,0.59,VWS V14.01,2013-04-05 23:32:00,
2013-04-05 16:37:00,46.8,14.6,29.82,WSW,249,0.0,0.0,27,0.00,,,0.59,VWS V14.01,2013-04-05 23:37:00,
2013-04-05 16:44:00,46.9,14.7,29.82,WSW,237,0.0,0.0,27,0.00,,,0.59,VWS V14.01,2013-04-05 23:44:00,
2013-04-05 16:49:00,46.9,14.7,29.82,West,259,4.0,4.0,27,0.00,,,0.59,VWS V14.01,2013-04-05 23:49:00,
2013-04-05 16:54:00,46.9,14.7,29.82,WSW,257,0.0,0.0,27,0.00,,,0.59,VWS V14.01,2013-04-05 23:54:00,
2013-04-05 17:00:00,47.1,14.9,29.82,SSW,193,0.0,0.0,27,0.00,,,0.59,VWS V14.01,2013-04-06 00:00:00,
2013-04-05 17:05:00,46.9,14.7,29.82,SW,221,3.6,5.4,27,0.00,,,0.59,VWS V14.01,2013-04-06 00:05:00,
2013-04-05 17:11:00,46.9,14.7,29.82,WSW,255,8.1,8.1,27,0.00,,,0.59,VWS V14.01,2013-04-06 00:11:00,
2013-04-05 17:17:00,46.9,14.7,29.82,West,280,0.0,0.0,27,0.00,,,0.59,VWS V14.01,2013-04-06 00:17:00,
2013-04-05 17:22:00,46.8,14.6,29.82,SW,234,2.7,2.7,27,0.00,,,0.59,VWS V14.01,2013-04-06 00:22:00,
2013-04-05 17:28:00,46.9,14.7,29.82,WSW,243,0.0,0.0,27,0.00,,,0.59,VWS V14.01,2013-04-06 00:28:00,
2013-04-05 17:33:00,46.8,14.6,29.82,SW,222,0.0,0.0,27,0.00,,,0.59,VWS V14.01,2013-04-06 00:33:00,
2013-04-05 17:39:00,46.6,14.4,29.82,NW,305,0.0,0.0,27,0.00,,,0.59,VWS V14.01,2013-04-06 00:39:00,
2013-04-05 17:44:00,46.4,14.2,29.82,WSW,247,3.6,3.6,27,0.00,,,0.59,VWS V14.01,2013-04-06 00:44:00,
2013-04-05 17:50:00,46.2,14.9,29.82,SW,214,3.1,3.1,28,0.00,,,0.59,VWS V14.01,2013-04-06 00:50:00,
2013-04-05 17:56:00,46.0,14.8,29.82,SSW,211,2.2,2.2,28,0.00,,,0.59,VWS V14.01,2013-04-06 00:56:00,
2013-04-05 18:02:00,46.0,14.8,29.82,SW,227,5.4,5.4,28,0.00,,,0.59,VWS V14.01,2013-04-06 01:02:00,
2013-04-05 18:08:00,46.0,14.8,29.82,SW,221,2.7,2.7,28,0.00,,,0.59,VWS V14.01,2013-04-06 01:08:00,
2013-04-05 18:14:00,46.0,14.8,29.82,WSW,237,0.0,0.0,28,0.00,,,0.59,VWS V14.01,2013-04-06 01:14:00,
2013-04-05 18:20:00,45.9,14.6,29.82,WSW,244,0.0,0.0,28,0.00,,,0.59,VWS V14.01,2013-04-06 01:20:00,
2013-04-05 18:26:00,45.9,14.6,29.82,WSW,246,0.0,2.7,28,0.00,,,0.59,VWS V14.01,2013-04-06 01:26:00,
2013-04-05 18:33:00,45.9,14.6,29.82,SW,236,0.0,0.0,28,0.00,,,0.59,VWS V14.01,2013-04-06 01:33:00,
2013-04-05 18:38:00,45.9,14.6,29.82,WSW,238,2.7,2.7,28,0.00,,,0.59,VWS V14.01,2013-04-06 01:38:00,
2013-04-05 18:44:00,45.7,14.5,29.82,WSW,237,4.0,4.9,28,0.00,,,0.59,VWS V14.01,2013-04-06 01:44:00,
2013-04-05 18:52:00,45.5,14.3,29.82,SW,225,0.0,0.0,28,0.00,,,0.59,VWS V14.01,2013-04-06 01:52:00,
2013-04-05 18:58:00,45.5,14.3,29.82,WNW,293,0.0,0.0,28,0.00,,,0.59,VWS V14.01,2013-04-06 01:58:00,
2013-04-05 19:03:00,45.3,14.1,29.82,WNW,284,0.0,5.4,28,0.00,,,0.59,VWS V14.01,2013-04-06 02:03:00,
2013-04-05 19:09:00,45.3,14.1,29.82,WNW,284,0.0,0.0,28,0.00,,,0.59,VWS V14.01,2013-04-06 02:09:00,
2013-04-05 19:14:00,45.3,14.1,29.82,WNW,287,0.0,0.0,28,0.00,,,0.59,VWS V14.01,2013-04-06 02:14:00,
2013-04-05 19:19:00,45.1,14.0,29.82,WNW,287,0.0,0.0,28,0.00,,,0.59,VWS V14.01,2013-04-06 02:19:00,
2013-04-05 19:25:00,45.1,14.0,29.79,WSW,240,0.0,0.0,28,0.00,,,0.59,VWS V14.01,2013-04-06 02:25:00,
2013-04-05 19:31:00,44.8,13.7,29.79,West,271,0.0,0.0,28,0.00,,,0.59,VWS V14.01,2013-04-06 02:31:00,
2013-04-05 19:36:00,44.8,13.7,29.79,WSW,237,0.0,0.0,28,0.00,,,0.59,VWS V14.01,2013-04-06 02:36:00,
2013-04-05 19:42:00,44.8,13.7,29.79,WSW,237,0.0,0.0,28,0.00,,,0.59,VWS V14.01,2013-04-06 02:42:00,
2013-04-05 19:47:00,44.8,13.7,29.79,WSW,237,0.0,0.0,28,0.00,,,0.59,VWS V14.01,2013-04-06 02:47:00,
2013-04-05 19:52:00,44.6,13.5,29.79,SW,234,0.0,0.0,28,0.00,,,0.59,VWS V14.01,2013-04-06 02:52:00,
2013-04-05 19:57:00,44.6,13.5,29.79,SW,233,0.0,0.0,28,0.00,,,0.59,VWS V14.01,2013-04-06 02:57:00,
2013-04-05 20:02:00,44.6,13.5,29.79,SW,233,0.0,0.0,28,0.00,,,0.59,VWS V14.01,2013-04-06 03:02:00,
2013-04-05 20:08:00,44.6,13.5,29.79,SW,233,0.0,0.0,28,0.00,,,0.59,VWS V14.01,2013-04-06 03:08:00,
2013-04-05 20:14:00,44.6,13.5,29.79,WSW,241,0.0,0.0,28,0.00,,,0.59,VWS V14.01,2013-04-06 03:14:00,
2013-04-05 20:19:00,44.6,13.5,29.79,SW,234,0.0,0.0,28,0.00,,,0.59,VWS V14.01,2013-04-06 03:19:00,
2013-04-05 20:25:00,44.2,13.2,29.79,SW,231,5.8,5.8,28,0.00,,,0.59,VWS V14.01,2013-04-06 03:25:00,
2013-04-05 20:30:00,43.9,12.9,29.79,SW,232,5.4,5.4,28,0.00,,,0.59,VWS V14.01,2013-04-06 03:30:00,
2013-04-05 20:35:00,44.1,13.1,29.79,SW,232,4.9,4.9,28,0.00,,,0.59,VWS V14.01,2013-04-06 03:35:00,
2013-04-05 20:41:00,43.9,12.9,29.79,SW,229,4.5,4.5,28,0.00,,,0.59,VWS V14.01,2013-04-06 03:41:00,
2013-04-05 20:46:00,43.9,12.9,29.79,SW,230,3.6,5.4,28,0.00,,,0.59,VWS V14.01,2013-04-06 03:46:00,
2013-04-05 20:51:00,43.7,12.8,29.79,SW,231,0.0,0.0,28,0.00,,,0.59,VWS V14.01,2013-04-06 03:51:00,
2013-04-05 20:58:00,43.7,12.8,29.79,WSW,249,0.0,4.0,28,0.00,,,0.59,VWS V14.01,2013-04-06 03:58:00,
2013-04-05 21:00:00,43.9,12.9,29.79,SW,227,0.0,3.6,28,0.00,,,0.59,VWS V14.01,2013-04-06 04:00:00,
2013-04-05 21:01:00,43.9,12.9,29.79,SW,230,4.0,4.0,28,0.00,,,0.59,VWS V14.01,2013-04-06 04:01:00,
2013-04-05 21:07:00,43.7,12.8,29.79,SW,231,2.7,2.7,28,0.00,,,0.59,VWS V14.01,2013-04-06 04:07:00,
2013-04-05 21:09:00,43.7,12.8,29.79,SW,232,3.1,4.0,28,0.00,,,0.59,VWS V14.01,2013-04-06 04:09:00,
2013-04-05 21:12:00,43.5,12.6,29.79,SW,227,0.0,2.7,28,0.00,,,0.59,VWS V14.01,2013-04-06 04:12:00,
2013-04-05 21:19:00,43.5,12.6,29.79,SW,234,0.0,0.0,28,0.00,,,0.59,VWS V14.01,2013-04-06 04:19:00,
2013-04-05 21:24:00,43.5,12.6,29.79,SW,230,0.0,0.0,28,0.00,,,0.59,VWS V14.01,2013-04-06 04:24:00,
2013-04-05 21:30:00,43.3,12.4,29.79,SW,235,0.0,0.0,28,0.00,,,0.59,VWS V14.01,2013-04-06 04:30:00,
2013-04-05 21:35:00,43.3,12.4,29.79,SW,236,0.0,0.0,28,0.00,,,0.59,VWS V14.01,2013-04-06 04:35:00,
2013-04-05 21:41:00,43.0,12.1,29.79,SW,229,5.4,5.4,28,0.00,,,0.59,VWS V14.01,2013-04-06 04:41:00,
2013-04-05 21:46:00,42.8,12.0,29.79,West,261,3.6,3.6,28,0.00,,,0.59,VWS V14.01,2013-04-06 04:46:00,
2013-04-05 21:51:00,42.8,12.0,29.79,SW,233,0.0,0.0,28,0.00,,,0.59,VWS V14.01,2013-04-06 04:51:00,
2013-04-05 21:57:00,42.8,12.0,29.79,SSW,207,3.6,3.6,28,0.00,,,0.59,VWS V14.01,2013-04-06 04:57:00,
2013-04-05 22:02:00,42.8,12.0,29.79,SW,232,0.0,0.0,28,0.00,,,0.59,VWS V14.01,2013-04-06 05:02:00,
2013-04-05 22:08:00,42.8,12.0,29.79,SW,226,2.7,2.7,28,0.00,,,0.59,VWS V14.01,2013-04-06 05:08:00,
2013-04-05 22:14:00,42.6,12.6,29.79,SW,229,0.0,0.0,29,0.00,,,0.59,VWS V14.01,2013-04-06 05:14:00,
2013-04-05 22:21:00,42.6,12.6,29.79,SW,235,2.7,2.7,29,0.00,,,0.59,VWS V14.01,2013-04-06 05:21:00,
2013-04-05 22:26:00,42.4,12.4,29.79,WSW,247,0.0,0.0,29,0.00,,,0.59,VWS V14.01,2013-04-06 05:26:00,
2013-04-05 22:33:00,42.4,12.4,29.79,WSW,247,0.0,0.0,29,0.00,,,0.59,VWS V14.01,2013-04-06 05:33:00,
2013-04-05 22:39:00,42.6,12.6,29.79,WSW,247,0.0,0.0,29,0.00,,,0.59,VWS V14.01,2013-04-06 05:39:00,
2013-04-05 22:44:00,42.4,12.4,29.79,WSW,240,0.0,0.0,29,0.00,,,0.59,VWS V14.01,2013-04-06 05:44:00,
2013-04-05 22:50:00,42.3,12.3,29.79,WSW,240,0.0,0.0,29,0.00,,,0.59,VWS V14.01,2013-04-06 05:50:00,
2013-04-05 22:55:00,42.4,12.4,29.79,WSW,240,0.0,0.0,29,0.00,,,0.59,VWS V14.01,2013-04-06 05:55:00,
2013-04-05 23:00:00,42.4,12.4,29.79,WSW,240,0.0,0.0,29,0.00,,,0.59,VWS V14.01,2013-04-06 06:00:00,
2013-04-05 23:06:00,42.4,12.4,29.79,WSW,240,0.0,0.0,29,0.00,,,0.59,VWS V14.01,2013-04-06 06:06:00,
2013-04-05 23:11:00,42.4,12.4,29.76,SW,229,0.0,0.0,29,0.00,,,0.59,VWS V14.01,2013-04-06 06:11:00,
2013-04-05 23:16:00,42.4,12.4,29.76,SW,229,0.0,0.0,29,0.00,,,0.59,VWS V14.01,2013-04-06 06:16:00,
2013-04-05 23:21:00,42.6,12.6,29.76,SW,229,0.0,0.0,29,0.00,,,0.59,VWS V14.01,2013-04-06 06:21:00,
2013-04-05 23:27:00,42.4,12.4,29.76,SW,229,0.0,0.0,29,0.00,,,0.59,VWS V14.01,2013-04-06 06:27:00,
2013-04-05 23:32:00,42.4,12.4,29.76,SW,229,0.0,0.0,29,0.00,,,0.59,VWS V14.01,2013-04-06 06:32:00,
2013-04-05 23:39:00,42.4,12.4,29.76,SW,229,0.0,0.0,29,0.00,,,0.59,VWS V14.01,2013-04-06 06:39:00,
2013-04-05 23:45:00,42.1,12.1,29.76,SW,229,0.0,0.0,29,0.00,,,0.59,VWS V14.01,2013-04-06 06:45:00,
2013-04-05 23:51:00,41.7,11.8,29.76,SW,229,0.0,0.0,29,0.00,,,0.59,VWS V14.01,2013-04-06 06:51:00,
2013-04-05 23:56:00,41.4,11.5,29.76,SW,229,0.0,0.0,29,0.00,,,0.59,VWS V14.01,2013-04-06 06:56:00,